[[{"header":{"parameterUnit":"m.s-1","parameterCategory":1,"la1":30.2991,"la2":30.254,"lo1":-89.0895,"lo2":-89.0444,"dy":0.0017,"dx":0.0017,"nx":28,"ny":28,"refTime":"2024-08-26T21:00:00:Z","depth":0,"parameterNumber":2,"parameterNumberName":"U-component_of_WINDS"},"data":[0,0,0,0,0,0,0,0,0,0,0,0,0,0,0,0,0,0,0,0,0,0,0,0,0,0,0,0,0,0,0,0,0,0,0,0,0,0,0,0,0,0,0,0,0,0,0,0,0,0,0,0,0,0,0,0,0,0,0.647,0.647,0,0.6439,0.6439,0.6438,0.6427,0.6428,0.6428,0.6428,0.6392,0.6391,0.639,0,0,0,0,0,0,0,0,0,0,0,0,0,0.6517,0.6516,0.647,0.647,0.6469,0.6439,0.6439,0.6438,0.6427,0.6428,0.6428,0.6428,0.6393,0.6392,0.639,0,0,0,0,0,0,0,0,0,0,0,0,0,0.6492,0.6516,0.647,0.646,0.6459,0.6439,0.6439,0.6438,0.6427,0.6428,0.6428,0.6428,0.6393,0.6392,0.639,0.6376,0,0,0.6385,0.6385,0,0,0,0,0,0,0,0,0.6494,0.6491,0.6462,0.6461,0.646,0.6437,0.6442,0.6417,0.6427,0.6439,0.6428,0.6428,0.6407,0.6404,0.6398,0.6375,0.6373,0.6385,0.6384,0.6383,0.6383,0,0,0,0,0,0,0,0.6496,0.6492,0.6458,0.6462,0.646,0.6457,0.6453,0.6438,0.6422,0.6438,0.6438,0.6434,0.6406,0.64,0.6397,0.6373,0.6385,0.6384,0.6383,0.6382,0.6337,0.6337,0,0,0,0,0,0,0.6499,0.6493,0.6459,0.6457,0.6478,0.6456,0.6452,0.6444,0.6423,0.6419,0.6434,0.6434,0.6402,0.6399,0.6396,0.6379,0.6383,0.6382,0.6381,0.6338,0.6337,0.6337,0,0,0,0,0,0,0.65,0.6496,0.646,0.6475,0.647,0.6455,0.6446,0.6444,0.6437,0.6419,0.6416,0.643,0.6402,0.6398,0.6382,0.6377,0.6381,0.638,0.6338,0.6337,0.6337,0.6344,0,0,0,0,0,0,0.6502,0.6497,0.6492,0.6475,0.6469,0.6447,0.6446,0.6443,0.6435,0.6434,0.6415,0.6412,0.6402,0.6384,0.638,0.6375,0.6379,0.6338,0.6338,0.6337,0.6344,0.6344,0.6344,0,0,0,0,0,0.6504,0.6494,0.6492,0.6488,0.6463,0.6447,0.6444,0.6434,0.6434,0.6429,0.6418,0.6412,0.6379,0.6383,0.6378,0.6372,0.6338,0.6338,0.6337,0.6344,0.6344,0.6344,0,0,0,0,0,0,0.651,0.6492,0.6489,0.6474,0.6462,0.6445,0.6438,0.6434,0.6421,0.642,0.6407,0.6403,0.6388,0.6378,0.6383,0.6358,0.6358,0.6357,0.6365,0.6365,0.6365,0.6367,0.6377,0,0,0,0,0,0.651,0.6499,0.6484,0.6472,0.6466,0.6454,0.6446,0.644,0.6426,0.6421,0.6409,0.6395,0.6381,0.6373,0.6359,0.6343,0.6339,0.6337,0.6337,0.6337,0.6335,0.6327,0.6326,0.6335,0.6335,0.6335,0,0,0.6509,0.6498,0.6492,0.6473,0.6463,0.6452,0.6449,0.6437,0.6428,0.6419,0.6403,0.6394,0.6377,0.6362,0.6354,0.6353,0.6332,0.6336,0.6336,0.6335,0.6326,0.6325,0.6324,0.6335,0.6335,0.6335,0,0,0.6501,0.6492,0.6482,0.6472,0.6458,0.645,0.6447,0.6431,0.6425,0.641,0.6402,0.6391,0.6368,0.6357,0.6348,0.6338,0.6333,0.6334,0.6333,0.6325,0.6324,0.6323,0.632,0.6319,0.6333,0.6333,0.6333,0,0.6502,0.6485,0.6477,0.6465,0.6457,0.645,0.6439,0.643,0.6411,0.6405,0.6405,0.6377,0.6365,0.6347,0.6345,0.6338,0.6334,0.6336,0.6325,0.6324,0.6323,0.632,0.6318,0.6333,0.6333,0.6333,0.6333,0,0.6487,0.6475,0.6468,0.6453,0.6444,0.6432,0.6421,0.6413,0.6408,0.64,0.6384,0.637,0.6354,0.6349,0.6343,0.633,0.633,0.6328,0.6327,0.6323,0.6319,0.6318,0.6334,0.6334,0.6334,0.6334,0,0,0.6481,0.6462,0.6459,0.6452,0.6437,0.6427,0.6416,0.6401,0.6395,0.6382,0.6372,0.6353,0.6351,0.6342,0.6334,0.6327,0.632,0.6325,0.6325,0.6325,0.6305,0.6307,0.6305,0.6317,0.6316,0.6316,0.6306,0,0.6472,0.6452,0.6444,0.6428,0.6417,0.6411,0.6401,0.6389,0.6381,0.6371,0.6361,0.6348,0.6347,0.6341,0.6333,0.6323,0.6316,0.6323,0.6306,0.6306,0.631,0.6303,0.6305,0.6296,0.6305,0.6304,0.6304,0,0.6458,0.6447,0.643,0.6417,0.6412,0.6403,0.639,0.638,0.6367,0.6361,0.6351,0.6345,0.6332,0.6333,0.6315,0.632,0.6312,0.6306,0.6306,0.6303,0.6304,0.63,0.6293,0.6292,0.6302,0.6302,0.6302,0,0.6456,0.6437,0.6424,0.6419,0.6402,0.6396,0.6389,0.6377,0.6369,0.6357,0.6351,0.6338,0.633,0.6319,0.6309,0.631,0.6291,0.6291,0.6286,0.6286,0.6282,0.6282,0.6273,0.6278,0.6278,0.6278,0.6278,0,0.6446,0.6435,0.6423,0.6416,0.6404,0.6395,0.6384,0.6376,0.6365,0.6355,0.6348,0.6339,0.6326,0.6315,0.6307,0.6293,0.6289,0.6284,0.6282,0.6284,0.6285,0.6279,0.6279,0.6277,0.6277,0.6277,0.6278,0,0.6441,0.6432,0.6418,0.6405,0.6401,0.6393,0.6381,0.6373,0.6365,0.6353,0.6349,0.6337,0.6323,0.6313,0.6294,0.6289,0.6275,0.6272,0.6279,0.6278,0.6273,0.6274,0.6259,0.6257,0.6264,0.6264,0.6264,0,0.6435,0.6427,0.6413,0.6407,0.64,0.639,0.6382,0.6373,0.6365,0.6351,0.6344,0.6331,0.632,0.6299,0.6287,0.6273,0.627,0.6266,0.6268,0.6271,0.627,0.6271,0.627,0.6266,0.6266,0.6266,0.6266,0,0.6425,0.6422,0.6412,0.64,0.6392,0.6382,0.6372,0.6367,0.6356,0.6348,0.6335,0.6326,0.6309,0.6295,0.6281,0.6272,0.6267,0.6266,0.6264,0.6266,0.627,0.6268,0.6279,0.6266,0.6266,0.6266,0.6266,0.6266,0.6419,0.6412,0.6402,0.6391,0.6383,0.6374,0.6366,0.6358,0.6348,0.6334,0.6329,0.6316,0.6303,0.6284,0.6275,0.6264,0.6263,0.626,0.626,0.6259,0.6259,0.6273,0.6261,0.6261,0.6261,0.6261,0.6261,0,0.6409,0.6402,0.6393,0.638,0.6371,0.6369,0.6358,0.6351,0.634,0.6329,0.6319,0.6304,0.6291,0.628,0.6266,0.6259,0.6257,0.6256,0.6256,0.6254,0.6261,0.6264,0.6259,0.6259,0.6259,0.6259,0.6259,0.6259,0.6403,0.6391,0.6386,0.6371,0.6364,0.6352,0.6346,0.6337,0.6329,0.6314,0.6304,0.6297,0.6286,0.6271,0.6259,0.6256,0.6251,0.6251,0.6248,0.6254,0.6254,0.6254,0.6257,0.6251,0.6251,0.6242,0.6242,0.6242]},{"header":{"parameterUnit":"m.s-1","parameterCategory":1,"la1":30.2991,"la2":30.254,"lo1":-89.0895,"lo2":-89.0444,"dy":0.0017,"dx":0.0017,"nx":28,"ny":28,"refTime":"2024-08-26T21:00:00:Z","depth":0,"parameterNumber":3,"parameterNumberName":"V-component_of_WINDS"},"data":[0,0,0,0,0,0,0,0,0,0,0,0,0,0,0,0,0,0,0,0,0,0,0,0,0,0,0,0,0,0,0,0,0,0,0,0,0,0,0,0,0,0,0,0,0,0,0,0,0,0,0,0,0,0,0,0,0,0,-2.8371,-2.8372,0,-2.843,-2.8431,-2.8431,-2.8414,-2.8413,-2.8412,-2.8411,-2.8467,-2.8469,-2.8472,0,0,0,0,0,0,0,0,0,0,0,0,0,-2.824,-2.8243,-2.8371,-2.8372,-2.8373,-2.843,-2.8431,-2.8431,-2.8414,-2.8413,-2.8412,-2.841,-2.8466,-2.8469,-2.8472,0,0,0,0,0,0,0,0,0,0,0,0,0,-2.8298,-2.8244,-2.8371,-2.8371,-2.8372,-2.843,-2.8431,-2.8432,-2.8415,-2.8413,-2.8411,-2.8409,-2.8465,-2.8469,-2.8472,-2.8532,0,0,-2.8484,-2.8486,0,0,0,0,0,0,0,0,-2.8294,-2.8303,-2.837,-2.8371,-2.8372,-2.8413,-2.8405,-2.8465,-2.8415,-2.8398,-2.8411,-2.8409,-2.845,-2.8455,-2.847,-2.8535,-2.8537,-2.8485,-2.8487,-2.8489,-2.849,0,0,0,0,0,0,0,-2.8291,-2.83,-2.8394,-2.8371,-2.8372,-2.8367,-2.8373,-2.8416,-2.8433,-2.84,-2.8399,-2.8406,-2.845,-2.8466,-2.8471,-2.8538,-2.8485,-2.8488,-2.849,-2.8492,-2.8655,-2.8657,0,0,0,0,0,0,-2.8287,-2.8297,-2.8392,-2.8396,-2.8328,-2.8371,-2.8378,-2.8402,-2.8433,-2.8436,-2.8407,-2.8405,-2.846,-2.8466,-2.8473,-2.8545,-2.8489,-2.8492,-2.8495,-2.8653,-2.8656,-2.8658,0,0,0,0,0,0,-2.8284,-2.8295,-2.839,-2.8346,-2.8358,-2.8375,-2.8402,-2.8404,-2.842,-2.8439,-2.8441,-2.8421,-2.8459,-2.8467,-2.8518,-2.8547,-2.8494,-2.8498,-2.8651,-2.8654,-2.8657,-2.869,0,0,0,0,0,0,-2.828,-2.8294,-2.8318,-2.8347,-2.836,-2.8435,-2.8404,-2.8406,-2.8427,-2.8424,-2.8452,-2.8455,-2.8458,-2.8512,-2.8522,-2.8551,-2.8501,-2.8648,-2.8652,-2.8656,-2.8686,-2.8694,-2.87,0,0,0,0,0,-2.8275,-2.8324,-2.832,-2.8331,-2.8391,-2.8437,-2.8445,-2.8449,-2.8429,-2.8453,-2.8465,-2.8454,-2.8542,-2.8518,-2.8528,-2.8559,-2.8647,-2.8651,-2.8656,-2.8683,-2.8692,-2.87,0,0,0,0,0,0,-2.8297,-2.8328,-2.8323,-2.8383,-2.8408,-2.8434,-2.8464,-2.8458,-2.8488,-2.8484,-2.8486,-2.8493,-2.8544,-2.8557,-2.8529,-2.8619,-2.8591,-2.8598,-2.8609,-2.8618,-2.8624,-2.862,-2.8504,0,0,0,0,0,-2.8309,-2.8346,-2.837,-2.842,-2.8433,-2.8447,-2.8467,-2.8468,-2.8493,-2.8503,-2.8519,-2.8543,-2.8576,-2.8597,-2.8629,-2.8688,-2.8694,-2.8715,-2.8722,-2.8727,-2.8733,-2.8765,-2.8774,-2.8673,-2.8673,-2.8673,0,0,-2.8333,-2.8355,-2.8378,-2.8425,-2.8445,-2.8481,-2.8455,-2.8495,-2.8522,-2.8509,-2.8558,-2.8571,-2.8597,-2.8652,-2.8678,-2.8664,-2.8762,-2.8733,-2.8737,-2.874,-2.877,-2.878,-2.8789,-2.8676,-2.8675,-2.8675,0,0,-2.8397,-2.8417,-2.8462,-2.8482,-2.8512,-2.8521,-2.8531,-2.8559,-2.8567,-2.8617,-2.8608,-2.8639,-2.8696,-2.8715,-2.8733,-2.8804,-2.8795,-2.8814,-2.885,-2.8881,-2.8889,-2.8896,-2.8921,-2.893,-2.882,-2.882,-2.882,0,-2.8423,-2.8479,-2.8484,-2.8526,-2.8546,-2.8538,-2.8582,-2.8601,-2.8639,-2.8653,-2.8638,-2.871,-2.8727,-2.8787,-2.8804,-2.8819,-2.883,-2.8811,-2.8888,-2.8895,-2.8901,-2.8925,-2.8935,-2.8822,-2.8822,-2.8822,-2.8821,0,-2.851,-2.8549,-2.8581,-2.862,-2.8644,-2.8686,-2.8697,-2.8721,-2.872,-2.873,-2.878,-2.8801,-2.8836,-2.8851,-2.8849,-2.891,-2.8901,-2.8887,-2.8859,-2.8913,-2.8935,-2.8945,-2.8825,-2.8824,-2.8824,-2.8823,0,0,-2.8588,-2.863,-2.8641,-2.8659,-2.8692,-2.8722,-2.8763,-2.8799,-2.8819,-2.8846,-2.888,-2.8929,-2.8917,-2.8936,-2.8937,-2.8965,-2.9019,-2.8947,-2.8948,-2.8959,-2.9087,-2.9097,-2.9108,-2.9014,-2.9016,-2.9017,-2.9084,0,-2.8654,-2.8728,-2.8734,-2.8801,-2.8837,-2.8829,-2.8865,-2.8889,-2.8899,-2.893,-2.8941,-2.8975,-2.8956,-2.8968,-2.8995,-2.9007,-2.9045,-2.9002,-2.9044,-2.9046,-2.9038,-2.9119,-2.913,-2.9193,-2.9093,-2.9095,-2.9096,0,-2.874,-2.8772,-2.8842,-2.8871,-2.8886,-2.8918,-2.8952,-2.8982,-2.9008,-2.9013,-2.9036,-2.9033,-2.9075,-2.9046,-2.9103,-2.9074,-2.9091,-2.91,-2.9102,-2.9106,-2.9074,-2.9124,-2.9213,-2.9222,-2.911,-2.9109,-2.9108,0,-2.879,-2.8849,-2.8899,-2.8914,-2.8949,-2.8972,-2.8987,-2.9011,-2.9033,-2.9062,-2.9075,-2.9108,-2.9126,-2.9151,-2.9157,-2.9136,-2.9213,-2.9186,-2.9218,-2.9218,-2.9234,-2.9233,-2.9326,-2.9247,-2.9246,-2.9246,-2.9246,0,-2.8862,-2.8906,-2.8922,-2.8952,-2.9,-2.9007,-2.9054,-2.9067,-2.9089,-2.9121,-2.9117,-2.9147,-2.9153,-2.9184,-2.9189,-2.9234,-2.9243,-2.9247,-2.9248,-2.9248,-2.9247,-2.9259,-2.9254,-2.9249,-2.9248,-2.9248,-2.9247,0,-2.8925,-2.8938,-2.8992,-2.902,-2.9029,-2.9063,-2.9086,-2.9115,-2.9125,-2.9166,-2.9176,-2.9192,-2.9228,-2.9237,-2.9279,-2.9282,-2.9337,-2.9333,-2.9328,-2.9328,-2.936,-2.9356,-2.9463,-2.9477,-2.9389,-2.939,-2.9391,0,-2.897,-2.9004,-2.9037,-2.9059,-2.9075,-2.9111,-2.9133,-2.914,-2.9163,-2.9196,-2.922,-2.9257,-2.9286,-2.9344,-2.9358,-2.9391,-2.9388,-2.9423,-2.9392,-2.9391,-2.9387,-2.9385,-2.9388,-2.9428,-2.9429,-2.943,-2.9431,0,-2.9049,-2.9054,-2.9087,-2.9123,-2.915,-2.9178,-2.9204,-2.9222,-2.9233,-2.9259,-2.9297,-2.932,-2.9364,-2.94,-2.9433,-2.9447,-2.944,-2.944,-2.945,-2.9449,-2.9445,-2.9447,-2.9343,-2.9438,-2.9437,-2.9436,-2.9436,-2.9436,-2.9104,-2.9134,-2.9162,-2.9199,-2.922,-2.9245,-2.9274,-2.9288,-2.932,-2.9358,-2.936,-2.9401,-2.9426,-2.947,-2.9486,-2.9517,-2.9506,-2.9519,-2.9523,-2.9526,-2.9528,-2.944,-2.9523,-2.9523,-2.9523,-2.9523,-2.9522,0,-2.9183,-2.9201,-2.9235,-2.9273,-2.9302,-2.9295,-2.9324,-2.9348,-2.9385,-2.9409,-2.9439,-2.9482,-2.9517,-2.9534,-2.9568,-2.959,-2.9588,-2.9598,-2.9596,-2.96,-2.9537,-2.9525,-2.9599,-2.9599,-2.9599,-2.9599,-2.9599,-2.9599,-2.9227,-2.9276,-2.9284,-2.9344,-2.9361,-2.9402,-2.942,-2.9442,-2.9462,-2.9511,-2.954,-2.9552,-2.9573,-2.9609,-2.964,-2.9644,-2.9657,-2.9669,-2.9671,-2.9612,-2.9604,-2.9596,-2.9586,-2.9672,-2.9672,-2.9731,-2.9732,-2.9732]}]]